{"data":{"norad_id":65643,"epoch":"2026-09-20T21:17:42.702720Z","epoch_age_seconds":75263,"freshness":"FRESH","line1":"1 65643U 25210X   26263.88729980  .00024529  00000+0  73461-3 0  9999","line2":"2 65643  53.1579 115.6583 0000781  87.3298 272.7794 15.34405610 57681","mean_motion":15.3440561,"eccentricity":7.81e-5,"inclination_deg":53.1579,"raan_deg":115.6583,"arg_perigee_deg":87.3298,"mean_anomaly_deg":272.7794,"bstar":0.00073461,"rev_number":5768,"period_min":93.847414960898,"perigee_km":462.15229783514,"apogee_km":463.22083447617,"semimajor_km":6840.8235661557,"source":"CELESTRAK","updated_at":"2026-09-21T09:00:35.677161Z"}}